Tracking 19717 objects as of 25-Jun-2019
HD Live streaming from Space Station
objects crossing your sky now

MORELOS 2

Track MORELOS 2 now!
MORELOS 2 is classified as:


NORAD ID: 16274
Int'l Code: 1985-109B
Perigee: 35,968.7 km
Apogee: 36,019.3 km
Inclination: 14.5 °
Period: 1,446.3 minutes
Semi major axis: 42364 km
RCS: 7.6304 m2 (large)
Launch date: November 27, 1985
Source: Mexico (MEX)
Launch site: AIR FORCE EASTERN TEST RANGE (AFETR)
aabbcc
Your satellite tracking list
Your tracking list is empty




NASA's NSSDC Master Catalog

Two Line Element Set (TLE):
1 16274U 85109B   19175.47067569 -.00000187  00000-0  00000+0 0  9996
2 16274  14.5113  17.0696 0005982  39.5435 309.7564  0.99561685111926
Source of the keplerian elements: AFSPC